sat.trackr.live / text

‹ back to catalog

STARLINK-35192

NORAD 65933 · 2025-225Z

PAYLOAD ACTIVE UNKNOWN

§ Identity

Operator
Country
US
Launch date
2025-10-08
Launch site
AFWTR
Launch vehicle
Mass (kg)
RCS (m²)

Purposes: comms

External: N2YO · Heavens-Above · Gunter

§ Orbital elements

Epoch: 2026-09-20T17:01:16.988160Z

Period
93.85 min
Inclination
53.1585°
Eccentricity
0.0001220
Mean motion
15.34407612 rev/d
Perigee alt
461.8 km
Apogee alt
463.5 km
Semi-major
6,840.8 km
B*
5.5548e-4
RAAN
336.4877°
Arg perigee
91.8193°
Mean anomaly
268.2949°
Rev number
5,431

§ Raw data

STARLINK-351921 65933U 25225Z   26263.70922440  .00018442  00000+0  55548-3 0  99972 65933  53.1585 336.4877 0001220  91.8193 268.2949 15.34407612 54315

JSON: /api/v1/satellites/65933 · /tle

For live sub-satellite position, see the globe view (requires WebGL).

§ Visibility from observer

Set your observer location to see the next 7 days of passes ≥ 10°. The values pass through the URL so the page stays shareable.

No JS? Fill the form by hand. The geolocation button needs JavaScript.